Simultaneous Nadir Overpasses (SNOs) Predictions

Prediction of SNOs between GOES-15 and METOP-B Satellite Orbit:

Table of predicted SNOs for the next 14.0 days since TLE Epoch: 2/5/2022
Index Date Time (GOES-15) GOES-15 Lat,Lon METOP-B Lat,Lon Distance(km) Time Diff (sec)
1 02/05/2022 17:50:18 0.00,-128.21 -0.77,-124.73 396.19 80
2 02/07/2022 06:06:39 -0.00,-128.16 -0.27,-129.33 132.92 80
3 02/08/2022 05:48:39 -0.00,-128.15 0.85,-124.33 434.71 80
4 02/09/2022 18:04:50 0.00,-128.16 0.16,-128.90 84.43 80
5 02/10/2022 17:46:51 0.00,-128.14 -0.95,-123.90 482.84 80
6 02/12/2022 06:05:51 -0.00,-128.08 -0.08,-128.50 47.30 80
7 02/14/2022 18:04:02 0.01,-128.06 0.03,-128.06 2.17 80
8 02/17/2022 05:59:43 -0.00,-127.97 0.08,-127.67 35.37 80
9 02/18/2022 18:18:34 0.00,-127.97 0.93,-132.23 485.48 80
